Asheville, NC

5:30 PM EDT on August 22, 2017 (GMT -0400)
Asheville Regional

Weather History for KAVL - January, 2008

Change the Weather History Date:

Sunday, January 6, 2008

  Actual Average Record
Temperature  
Mean Temperature 48 °F 37 °F  
Max Temperature 63 °F 47 °F 69 °F (1907)
Min Temperature 33 °F 27 °F -5 °F (1924)
Degree Days  
Heating Degree Days 17 28  
Month to date heating degree days 200 168  
Since 1 July heating degree days 1658 1829  
Cooling Degree Days 0 0  
Month to date cooling degree days 0 0  
Year to date cooling degree days 0 0  
Moisture  
Dew Point 39 °F    
Average Humidity 73    
Maximum Humidity 100    
Minimum Humidity 46    
Precipitation  
Precipitation 0.02 in 0.12 in 1.51 in (1995)
Month to date precipitation 0.02 0.67  
Year to date precipitation 0.02 0.67  
Snow  
Snow 0.00 in 0.10 in 5.70 in (1996)
Month to date snowfall 0.7 0.7  
Since 1 July snowfall 0.8 1.7  
Snow Depth -    
Sea Level Pressure  
Sea Level Pressure 30.30 in    
Wind  
Wind Speed 3 mph (South)    
Max Wind Speed 10 mph    
Max Gust Speed 13 mph    
Visibility 9 miles    
Events Rain    
T = Trace of Precipitation, MM = Missing Value Source: NWS Daily Summary

Daily Weather History Graph

Daily Weather History Graph

Search for Another Location

Airport or City:

Trip Planner

Search our weather history database for the weather conditions in past years. The results will help you decide how hot, cold, wet, or windy it might be!

Date:

Astronomy

Jan. 06, 2008 Rise Set
Actual Time 7:39 AM EST 5:32 PM EST
Civil Twilight 7:11 AM EST 6:00 PM EST
Nautical Twilight 6:40 AM EST 6:31 PM EST
Astronomical Twilight 6:09 AM EST 7:02 PM EST
Moon 6:24 AM EST (1/6) 3:45 PM EST (1/6)
Length of Visible Light 10h 48m
Length of Day
9h 52m
Waning Crescent, 3% of the Moon is Illuminated
Jan 6
Waning Crescent
Jan 8
New
Jan 15
First Quarter
Jan 22
Full
Jan 30
Last Quarter

Hourly Weather History & Observations

Time (EST) Temp. Windchill Dew Point Humidity Pressure Visibility Wind Dir Wind Speed Gust Speed Precip Events Conditions
12:54 AM 43.0 °F 40.3 °F 30.0 °F 60% 30.30 in 10.0 mi Variable 4.6 mph - N/A   Overcast
1:54 AM 42.1 °F - 32.0 °F 67% 30.30 in 10.0 mi Calm Calm - 0.00 in Rain Light Rain
2:54 AM 39.0 °F - 37.0 °F 93% 30.31 in 8.0 mi Calm Calm - 0.01 in Rain Light Rain
3:54 AM 39.0 °F - 37.0 °F 93% 30.31 in 8.0 mi Calm Calm - 0.01 in   Overcast
4:54 AM 37.0 °F - 36.0 °F 96% 30.30 in 8.0 mi Calm Calm - N/A   Mostly Cloudy
5:54 AM 35.1 °F - 35.1 °F 100% 30.32 in 7.0 mi Calm Calm - N/A   Mostly Cloudy
6:54 AM 34.0 °F - 33.1 °F 96% 30.34 in 7.0 mi Calm Calm - N/A   Mostly Cloudy
7:54 AM 35.1 °F 30.1 °F 35.1 °F 100% 30.35 in 10.0 mi NNW 5.8 mph - N/A   Mostly Cloudy
8:54 AM 37.9 °F 35.5 °F 36.0 °F 93% 30.35 in 8.0 mi NNW 3.5 mph - N/A   Overcast
9:54 AM 41.0 °F - 37.9 °F 89% 30.35 in 10.0 mi Calm Calm - N/A   Overcast
10:54 AM 46.9 °F - 41.0 °F 80% 30.34 in 10.0 mi Calm Calm - N/A   Mostly Cloudy
11:54 AM 54.0 °F - 39.9 °F 59% 30.31 in 10.0 mi Calm Calm - N/A   Mostly Cloudy
12:54 PM 60.1 °F - 41.0 °F 49% 30.26 in 10.0 mi Variable 3.5 mph - N/A   Mostly Cloudy
1:54 PM 62.1 °F - 41.0 °F 46% 30.24 in 10.0 mi Calm Calm - N/A   Mostly Cloudy
2:54 PM 63.0 °F - 42.1 °F 46% 30.24 in 10.0 mi SSW 9.2 mph - N/A   Overcast
3:54 PM 62.1 °F - 43.0 °F 50% 30.24 in 10.0 mi SSW 6.9 mph - N/A   Partly Cloudy
4:54 PM 60.1 °F - 44.1 °F 55% 30.25 in 10.0 mi SSW 6.9 mph - N/A   Scattered Clouds
5:54 PM 55.0 °F - 44.1 °F 67% 30.27 in 10.0 mi South 9.2 mph - N/A   Clear
6:54 PM 51.1 °F - 43.0 °F 74% 30.30 in 10.0 mi SSE 5.8 mph - N/A   Clear
7:54 PM 50.0 °F - 42.1 °F 74% 30.31 in 10.0 mi SSE 5.8 mph - N/A   Clear
8:54 PM 50.0 °F - 42.1 °F 74% 30.31 in 10.0 mi SSE 4.6 mph - N/A   Clear
9:54 PM 46.0 °F 42.5 °F 41.0 °F 83% 30.30 in 10.0 mi SSE 6.9 mph - N/A   Clear
10:54 PM 42.1 °F - 39.0 °F 89% 30.30 in 10.0 mi Calm Calm - N/A   Clear
11:54 PM 42.1 °F - 39.9 °F 92% 30.29 in 9.0 mi Calm Calm - N/A   Clear